Location: Stara Lesna
(49.1528°N, 20.2911°E)
Time: 07:59:58
(UTC+02:00)

IRIDIUM 104 - Pass Details

Date: 21 September 2019
Orbit: 776 x 779 km, 86.4° (Epoch: 19 October)

Event Time Altitude Azimuth Distance (km) Brightness Sun altitude
Exits shadow 03:33:47 72° 316° (NW) 821 4.3 -26.6°
Drops below altitude 10° 03:38:40 10° 1° (N) 2,342 7.2 -26.0°
Sets 03:41:02 0° 3° (N) 3,274 8.1 -25.6°
